This demonstration page uses our WeatherBlox Daily Observations layout. Learn more.

Left ArrowRight Arrow

38.83388, -104.82136

Hourly Observations for March 23, 2018

Temp ( °F °C ) Dew Point ( °F °C ) Humidity (%) Winds ( mph kmh ) Pressure ( in mb ) Visibility ( mi km ) Precip ( " mm )
12:58 am 00:58 Mostly Cloudy 57 13.7 28 -2.5 33 33 SE 16 26 29.62 1003 10 16 0.00 0.00
1:08 am 01:08 Partly Cloudy 57 14 27 -3 31 31 ESE 15 24 29.62 1003 10 16 0.00 0.00
1:33 am 01:33 Clear 57 14 27 -3 31 31 S 12 19 29.62 1003 10 16 0.00 0.00
1:58 am 01:58 Clear 57 13.7 27 -2.6 32 32 N 5 7 29.62 1003 10 16 0.00 0.00
2:08 am 02:08 Clear 57 14 28 -2 33 33 SSE 12 19 29.59 1002 10 16 0.00 0.00
2:54 am 02:54 Clear 57 14 27 -3 31 31 S 17 28 29.59 1002 10 16 0.00 0.00
2:58 am 02:58 Clear 57 13.9 28 -2.5 32 32 SSE 23 37 29.59 1002 10 16 0.00 0.00
3:16 am 03:16 Clear 57 14 28 -2 33 33 S 12 19 29.53 1000 10 16 0.00 0.00
3:17 am 03:17 Clear 57 14 28 -2 33 33 SW 13 20 29.53 1000 10 16 0.00 0.00
3:58 am 03:58 Clear 55 13 27 -2.9 33 33 NW 13 20 29.53 1000 10 16 0.00 0.00
4:44 am 04:44 Clear 55 13 25 -4 31 31 E 17 28 29.53 1000 10 16 0.00 0.00
4:53 am 04:53 Mostly Clear 57 14 25 -4 29 29 W 16 26 29.50 999 10 16 0.00 0.00
4:56 am 04:56 Partly Cloudy 57 14 25 -4 29 29 N 21 33 29.50 999 10 16 0.00 0.00
4:58 am 04:58 Partly Cloudy 57 13.9 24 -4.3 28 28 NW 23 37 29.47 998 10 16 0.00 0.00
5:02 am 05:02 Mostly Cloudy 57 14 25 -4 29 29 WNW 16 26 29.50 999 10 16 0.00 0.00
5:06 am 05:06 Mostly Cloudy 57 14 25 -4 29 29 N 13 20 29.47 998 10 16 0.00 0.00
5:08 am 05:08 Mostly Cloudy 57 14 23 -5 27 27 NNW 13 20 29.47 998 10 16 0.00 0.00
5:11 am 05:11 Mostly Cloudy 57 14 23 -5 27 27 N 13 20 29.47 998 10 16 0.00 0.00
5:15 am 05:15 Mostly Cloudy 57 14 25 -4 29 29 NW 23 37 29.47 998 10 16 0.00 0.00
5:18 am 05:18 Mostly Cloudy 57 14 23 -5 27 27 NW 15 24 29.50 999 10 16 0.00 0.00
5:22 am 05:22 Mostly Cloudy 57 14 25 -4 29 29 NW 20 31 29.47 998 10 16 0.00 0.00
5:29 am 05:29 Mostly Cloudy 57 14 25 -4 29 29 S 14 22 29.47 998 10 16 0.00 0.00
5:34 am 05:34 Mostly Cloudy 57 14 25 -4 29 29 NW 17 28 29.44 997 10 16 0.00 0.00
5:40 am 05:40 Mostly Cloudy 57 14 25 -4 29 29 WNW 14 22 29.44 997 10 16 0.00 0.00
5:47 am 05:47 Mostly Cloudy 57 14 23 -5 27 27 NW 21 33 29.47 998 10 16 0.00 0.00
5:53 am 05:53 Mostly Cloudy 59 15 23 -5 25 25 WNW 30 48 29.44 997 10 16 0.00 0.00
5:58 am 05:58 Mostly Cloudy 58 14.6 22 -5.4 25 25 WNW 17 28 29.50 999 10 16 0.00 0.00
6:01 am 06:01 Mostly Cloudy 59 15 23 -5 25 25 N 13 20 29.47 998 10 16 0.00 0.00
6:09 am 06:09 Mostly Cloudy 59 15 23 -5 25 25 NE 17 28 29.47 998 10 16 0.00 0.00
6:11 am 06:11 Mostly Cloudy 59 15 23 -5 25 25 NW 15 24 29.47 998 10 16 0.00 0.00
6:21 am 06:21 Partly Cloudy 57 14 23 -5 27 27 NNW 25 41 29.50 999 10 16 0.00 0.00
6:24 am 06:24 Partly Cloudy 57 14 25 -4 29 29 NE 14 22 29.50 999 10 16 0.00 0.00
6:28 am 06:28 Mostly Clear 57 14 25 -4 29 29 N 15 24 29.50 999 10 16 0.00 0.00
6:33 am 06:33 Mostly Clear 57 14 25 -4 29 29 N 20 31 29.47 998 10 16 0.00 0.00
6:35 am 06:35 Mostly Clear 55 13 25 -4 31 31 NNW 18 30 29.53 1000 10 16 0.00 0.00
6:41 am 06:41 Clear 55 13 25 -4 31 31 NW 21 33 29.50 999 10 16 0.00 0.00
6:43 am 06:43 Clear 55 13 25 -4 31 31 NNW 20 31 29.50 999 10 16 0.00 0.00
6:52 am 06:52 Clear 55 13 25 -4 31 31 E 12 19 29.50 999 10 16 0.00 0.00
6:55 am 06:55 Clear 55 13 25 -4 31 31 E 16 26 29.50 999 10 16 0.00 0.00
6:58 am 06:58 Sunny 56 13.3 24 -4.2 30 30 ESE 16 26 29.53 1000 10 16 0.00 0.00
7:18 am 07:18 Sunny 54 12 27 -3 35 35 SE 14 22 29.56 1001 10 16 0.00 0.00
7:27 am 07:27 Sunny 54 12 27 -3 35 35 E 21 33 29.50 999 10 16 0.00 0.00
7:58 am 07:58 Sunny 56 13.1 26 -3.1 33 33 ESE 18 30 29.53 1000 10 16 0.00 0.00
8:02 am 08:02 Sunny 55 13 27 -3 33 33 ESE 14 22 29.53 1000 10 16 0.00 0.00
8:52 am 08:52 Sunny 57 14 27 -3 31 31 ESE 17 28 29.47 998 10 16 0.00 0.00
8:58 am 08:58 Sunny 58 14.3 26 -3.6 29 29 SE 15 24 29.50 999 10 16 0.00 0.00
9:24 am 09:24 Sunny 59 15 25 -4 27 27 ESE 13 20 29.31 993 10 16 0.00 0.00
9:32 am 09:32 Sunny 59 15 27 -3 29 29 SSE 13 20 29.31 993 10 16 0.00 0.00
9:34 am 09:34 Sunny 59 15 25 -4 27 27 ESE 18 30 29.30 992 10 16 0.00 0.00
9:39 am 09:39 Sunny 59 15 25 -4 27 27 SSE 23 37 29.29 992 10 16 0.00 0.00
9:58 am 09:58 Sunny 60 15.6 24 -4.2 25 25 SSE 25 41 29.30 992 10 16 0.00 0.00
10:34 am 10:34 Sunny 61 16 23 -5 23 23 SSE 21 33 29.27 991 10 16 0.00 0.00
10:58 am 10:58 Sunny 62 16.5 25 -3.9 25 25 SSE 22 35 29.29 992 10 16 0.00 0.00
10:59 am 10:59 Sunny 63 17 27 -3 25 25 S 23 37 29.29 992 10 16 0.00 0.00
11:06 am 11:06 Sunny 63 17 25 -4 24 24 SE 21 33 29.29 992 10 16 0.00 0.00
11:17 am 11:17 Sunny 61 16 25 -4 25 25 S 23 37 29.28 992 10 16 0.00 0.00
11:58 am 11:58 Sunny 62 16.8 25 -4 24 24 SSE 12 19 29.28 992 10 16 0.00 0.00
12:27 pm 12:27 Partly Cloudy with Light Rain 61 16 28 -2 29 29 S 26 43 29.26 991 10 16 0.00 0.00
12:30 pm 12:30 Partly Cloudy with Light Rain 57 14 36 2 44 44 S 15 24 29.33 993 10 16 0.00 0.00
12:40 pm 12:40 Mostly Cloudy with Light Showers 52 11 34 1 50 50 WNW 15 24 29.37 995 10 16 0.00 0.00
12:46 pm 12:46 Windy with Rain Showers Likely 55 13 28 -2 36 36 N 20 31 29.33 993 10 16 0.00 0.00
12:54 pm 12:54 Partly Cloudy 59 15 28 -2 31 31 NNW 15 24 29.33 993 10 16 0.00 0.00
12:56 pm 12:56 Partly Cloudy 57 14 28 -2 33 33 N 17 28 29.33 993 10 16 0.00 0.00
12:58 pm 12:58 Partly Cloudy 58 14.3 27 -2.7 31 31 N 23 37 29.31 993 10 16 0.00 0.00
1:03 pm 13:03 Mostly Sunny 57 14 28 -2 33 33 NNW 20 31 29.31 993 10 16 0.00 0.00
1:06 pm 13:06 Mostly Sunny 59 15 27 -3 29 29 E 14 22 29.32 993 10 16 0.00 0.00
1:12 pm 13:12 Sunny 59 15 27 -3 29 29 E 14 22 29.31 993 10 16 0.00 0.00
1:21 pm 13:21 Sunny 61 16 23 -5 23 23 E 14 22 29.29 992 10 16 0.00 0.00
1:30 pm 13:30 Sunny 61 16 23 -5 23 23 ESE 13 20 29.29 992 10 16 0.00 0.00
1:44 pm 13:44 Sunny 61 16 23 -5 23 23 S 16 26 29.27 991 10 16 0.00 0.00
1:47 pm 13:47 Sunny 61 16 21 -6 22 22 SE 14 22 29.28 992 10 16 0.00 0.00
1:58 pm 13:58 Sunny 60 15.7 22 -5.7 23 23 ESE 22 35 29.25 991 10 16 0.00 0.00
2:21 pm 14:21 Sunny 61 16 19 -7 20 20 SSE 17 28 29.29 992 10 16 0.00 0.00
2:26 pm 14:26 Sunny 63 17 18 -8 17 17 ESE 17 28 29.29 992 10 16 0.00 0.00
2:58 pm 14:58 Sunny 62 16.8 16 -9 16 16 NE 5 7 29.30 992 10 16 0.00 0.00
3:58 pm 15:58 Sunny 59 15.1 15 -9.2 18 18 E 8 13 29.33 993 10 16 0.00 0.00
4:21 pm 16:21 Sunny 59 15 10 -12 14 14 N 17 28 29.33 993 10 16 0.00 0.00
4:25 pm 16:25 Sunny 57 14 10 -12 15 15 ESE 13 20 29.32 993 10 16 0.00 0.00
4:48 pm 16:48 Sunny 57 14 9 -13 14 14 E 12 19 29.33 993 10 16 0.00 0.00
4:58 pm 16:58 Sunny 56 13.6 10 -12 16 16 ENE 6 9 29.35 994 10 16 0.00 0.00
5:58 pm 17:58 Sunny 55 12.6 14 -10.1 20 20 SSE 6 9 29.37 995 10 16 0.00 0.00
6:58 pm 18:58 Sunny 53 11.7 16 -9.1 23 23 SSE 15 24 29.39 995 10 16 0.00 0.00
7:58 pm 19:58 Clear 51 10.6 16 -8.9 25 25 SE 6 9 29.43 997 10 16 0.00 0.00
8:58 pm 20:58 Clear 49 9.4 17 -8.1 28 28 WNW 6 9 29.48 998 10 16 0.00 0.00
9:58 pm 21:58 Clear 47 8.2 18 -8 31 31 WNW 5 7 29.50 999 10 16 0.00 0.00
10:58 pm 22:58 Clear 46 7.5 17 -8.2 32 32 NW 6 9 29.53 1000 10 16 0.00 0.00
11:58 pm 23:58 Clear 46 7.5 18 -7.6 34 34 NNW 5 7 29.54 1000 10 16 0.00 0.00

Powered by AerisWeather